TK981 LTFJ-LTFD

Flight info

Callsign TK981
Flight time 0h 31m
Altitude 24000
Route YAA DCT KONEN
Aircraft C700/M-SBDGHM1RWXY/LB2

Departure

Time 2026-05-07 14:15
Airport Istanbul Sabiha Gökçen International Airport (LTFJ)

Arrival

Time 2026-05-07 14:46
Airport Balıkesir Koca Seyit Airport (LTFD)
Time Latitude Longitude Altitude Speed Heading
2026-05-07 14:09 40.90295 29.31025 315 ft 0 kts 65°
2026-05-07 14:09 40.90303 29.31046 315 ft 7 kts 65°
2026-05-07 14:10 40.90340 29.31148 315 ft 16 kts 62°
2026-05-07 14:10 40.90388 29.31275 315 ft 14 kts 66°
2026-05-07 14:10 40.90397 29.31378 315 ft 12 kts 109°
2026-05-07 14:10 40.90342 29.31478 315 ft 15 kts 141°
2026-05-07 14:11 40.90318 29.31600 314 ft 17 kts 64°
2026-05-07 14:11 40.90376 29.31756 315 ft 21 kts 63°
2026-05-07 14:11 40.90446 29.31941 315 ft 24 kts 63°
2026-05-07 14:11 40.90524 29.32146 315 ft 24 kts 65°
2026-05-07 14:12 40.90571 29.32291 315 ft 17 kts 67°
2026-05-07 14:12 40.90583 29.32398 315 ft 13 kts 108°
2026-05-07 14:12 40.90518 29.32464 314 ft 0 kts 157°
2026-05-07 14:13 40.90514 29.32466 314 ft 3 kts 157°
2026-05-07 14:13 40.90457 29.32486 312 ft 13 kts 195°
2026-05-07 14:14 40.90384 29.32372 312 ft 23 kts 243°
2026-05-07 14:14 40.90209 29.31887 314 ft 99 kts 245°
2026-05-07 14:14 40.89834 29.30877 442 ft 135 kts 244°
2026-05-07 14:14 40.89340 29.29614 665 ft 169 kts 241°
2026-05-07 14:15 40.88409 29.28519 946 ft 198 kts 198°
2026-05-07 14:15 40.87012 29.28702 1511 ft 215 kts 165°
2026-05-07 14:15 40.85536 29.29266 2203 ft 225 kts 172°
2026-05-07 14:15 40.83955 29.29490 2971 ft 232 kts 184°
2026-05-07 14:16 40.82338 29.29216 3751 ft 237 kts 195°
2026-05-07 14:16 40.80703 29.28727 4547 ft 243 kts 196°
2026-05-07 14:16 40.79017 29.28286 5353 ft 250 kts 194°
2026-05-07 14:16 40.77303 29.27888 6168 ft 255 kts 194°
2026-05-07 14:17 40.75545 29.27478 6970 ft 258 kts 194°
2026-05-07 14:17 40.73769 29.27049 7770 ft 259 kts 194°
2026-05-07 14:17 40.71991 29.26618 8582 ft 260 kts 193°
2026-05-07 14:17 40.70201 29.26188 9396 ft 261 kts 193°
2026-05-07 14:18 40.68404 29.25757 10196 ft 262 kts 193°
2026-05-07 14:18 40.66627 29.25331 10932 ft 263 kts 193°
2026-05-07 14:18 40.64820 29.24897 11691 ft 263 kts 192°
2026-05-07 14:18 40.63019 29.24466 12464 ft 263 kts 192°
2026-05-07 14:19 40.61215 29.24035 13233 ft 262 kts 192°
2026-05-07 14:19 40.59422 29.23604 13998 ft 261 kts 192°
2026-05-07 14:19 40.57660 29.23182 14662 ft 260 kts 192°
2026-05-07 14:19 40.55880 29.22757 15328 ft 259 kts 192°
2026-05-07 14:20 40.54123 29.22337 15984 ft 258 kts 193°
2026-05-07 14:20 40.52357 29.21916 16642 ft 256 kts 193°
2026-05-07 14:20 40.50602 29.21493 17291 ft 255 kts 194°
2026-05-07 14:20 40.48963 29.20725 17904 ft 250 kts 212°
2026-05-07 14:21 40.47570 29.19399 18528 ft 245 kts 228°
2026-05-07 14:21 40.46525 29.17669 19062 ft 239 kts 244°
2026-05-07 14:21 40.45831 29.15714 19590 ft 234 kts 252°
2026-05-07 14:21 40.45179 29.13752 20120 ft 233 kts 251°
2026-05-07 14:22 40.44536 29.11843 20603 ft 231 kts 252°
2026-05-07 14:22 40.43894 29.09920 21087 ft 229 kts 253°
2026-05-07 14:22 40.43258 29.08007 21563 ft 228 kts 253°
2026-05-07 14:22 40.42623 29.06101 22028 ft 227 kts 253°
2026-05-07 14:23 40.41991 29.04210 22490 ft 226 kts 254°
2026-05-07 14:23 40.41358 29.02316 22943 ft 226 kts 254°
2026-05-07 14:23 40.40729 29.00432 23374 ft 226 kts 254°
2026-05-07 14:23 40.40074 28.98454 23405 ft 245 kts 254°
2026-05-07 14:24 40.39378 28.96359 23411 ft 262 kts 253°
2026-05-07 14:24 40.38616 28.94095 23413 ft 279 kts 252°
2026-05-07 14:24 40.37805 28.91684 23409 ft 297 kts 252°
2026-05-07 14:24 40.36951 28.89139 23407 ft 313 kts 252°
2026-05-07 14:25 40.36060 28.86489 23408 ft 327 kts 251°
2026-05-07 14:25 40.35121 28.83702 23405 ft 341 kts 251°
2026-05-07 14:25 40.34142 28.80796 23409 ft 353 kts 251°
2026-05-07 14:25 40.33133 28.77804 23403 ft 364 kts 251°
2026-05-07 14:26 40.32106 28.74758 23402 ft 373 kts 251°
2026-05-07 14:26 40.31041 28.71605 23405 ft 382 kts 250°
2026-05-07 14:26 40.29950 28.68381 23400 ft 390 kts 250°
2026-05-07 14:26 40.28856 28.65150 23394 ft 396 kts 250°
2026-05-07 14:27 40.27723 28.61810 23398 ft 401 kts 250°
2026-05-07 14:27 40.26581 28.58446 23400 ft 406 kts 250°
2026-05-07 14:27 40.25436 28.55074 23315 ft 412 kts 250°
2026-05-07 14:27 40.24246 28.51566 22643 ft 430 kts 249°
2026-05-07 14:28 40.23011 28.47933 21979 ft 435 kts 249°
2026-05-07 14:28 40.21790 28.44382 21312 ft 419 kts 249°
2026-05-07 14:28 40.20632 28.41006 20663 ft 403 kts 249°
2026-05-07 14:28 40.19508 28.37699 20022 ft 391 kts 249°
2026-05-07 14:29 40.18408 28.34471 19384 ft 385 kts 249°
2026-05-07 14:29 40.17315 28.31283 18773 ft 382 kts 248°
2026-05-07 14:29 40.16238 28.28148 18151 ft 381 kts 248°
2026-05-07 14:29 40.15152 28.24984 17469 ft 381 kts 248°
2026-05-07 14:30 40.14074 28.21848 16792 ft 364 kts 248°
2026-05-07 14:30 40.13038 28.18839 16128 ft 368 kts 248°
2026-05-07 14:30 40.12015 28.15868 15482 ft 334 kts 248°
2026-05-07 14:30 40.11096 28.13213 14826 ft 308 kts 248°
2026-05-07 14:31 40.10274 28.10830 14130 ft 277 kts 248°
2026-05-07 14:31 40.09517 28.08633 13972 ft 261 kts 248°
2026-05-07 14:31 40.08755 28.06416 13188 ft 273 kts 247°
2026-05-07 14:31 40.07969 28.04143 12274 ft 286 kts 247°
2026-05-07 14:32 40.07126 28.01711 11386 ft 295 kts 247°
2026-05-07 14:32 40.06283 27.99284 10495 ft 290 kts 247°
2026-05-07 14:32 40.05454 27.96893 9578 ft 286 kts 246°
2026-05-07 14:32 40.04639 27.94543 8630 ft 283 kts 246°
2026-05-07 14:33 40.03834 27.92224 7715 ft 279 kts 246°
2026-05-07 14:33 40.03046 27.89958 6889 ft 275 kts 246°
2026-05-07 14:33 40.02292 27.87796 6795 ft 246 kts 246°
2026-05-07 14:33 40.01622 27.85871 6782 ft 221 kts 246°
2026-05-07 14:34 40.01009 27.84113 6782 ft 206 kts 246°
2026-05-07 14:34 40.00434 27.82461 6831 ft 192 kts 246°
2026-05-07 14:34 39.99904 27.80940 6786 ft 178 kts 246°
2026-05-07 14:34 39.99408 27.79521 6778 ft 167 kts 246°
2026-05-07 14:35 39.98914 27.78102 6785 ft 177 kts 246°
2026-05-07 14:35 39.98372 27.76546 6813 ft 199 kts 246°
2026-05-07 14:35 39.97769 27.74823 6815 ft 218 kts 246°
2026-05-07 14:35 39.97104 27.72923 6811 ft 244 kts 246°
2026-05-07 14:36 39.96361 27.70798 6808 ft 266 kts 246°
2026-05-07 14:36 39.95579 27.68568 6804 ft 273 kts 247°
2026-05-07 14:36 39.94789 27.66312 6803 ft 275 kts 247°
2026-05-07 14:36 39.94005 27.64078 6803 ft 273 kts 246°
2026-05-07 14:37 39.93215 27.61827 6801 ft 272 kts 246°
2026-05-07 14:37 39.91635 27.57333 6809 ft 272 kts 247°
2026-05-07 14:37 39.90858 27.55124 6810 ft 271 kts 247°
2026-05-07 14:38 39.90075 27.52903 6808 ft 269 kts 247°
2026-05-07 14:38 39.89291 27.50678 6808 ft 270 kts 247°
2026-05-07 14:38 39.88507 27.48453 6808 ft 270 kts 246°
2026-05-07 14:38 39.87720 27.46222 6811 ft 272 kts 246°
2026-05-07 14:39 39.86928 27.43982 6813 ft 272 kts 247°
2026-05-07 14:39 39.86134 27.41737 6813 ft 273 kts 247°
2026-05-07 14:39 39.85349 27.39519 6815 ft 272 kts 247°
2026-05-07 14:39 39.84557 27.37280 6813 ft 270 kts 246°
2026-05-07 14:40 39.83769 27.35055 6810 ft 271 kts 247°
2026-05-07 14:40 39.82976 27.32817 6810 ft 272 kts 246°
2026-05-07 14:40 39.82182 27.30581 6812 ft 273 kts 246°
2026-05-07 14:40 39.81307 27.28384 6809 ft 274 kts 238°
2026-05-07 14:41 39.80036 27.26523 6802 ft 276 kts 223°
2026-05-07 14:41 39.78556 27.24974 6809 ft 276 kts 221°
2026-05-07 14:41 39.77066 27.23407 6808 ft 275 kts 220°
2026-05-07 14:41 39.75579 27.21838 6817 ft 275 kts 221°
2026-05-07 14:42 39.74091 27.20272 6826 ft 275 kts 220°
2026-05-07 14:42 39.73100 27.19232 6821 ft 276 kts 220°
2026-05-07 14:42 39.71121 27.17151 6826 ft 275 kts 220°
2026-05-07 14:42 39.69638 27.15593 6825 ft 272 kts 220°
2026-05-07 14:43 39.68176 27.14059 6827 ft 270 kts 220°
2026-05-07 14:43 39.67203 27.13051 6823 ft 269 kts 218°
2026-05-07 14:43 39.65447 27.12160 6825 ft 276 kts 189°
2026-05-07 14:43 39.63514 27.11831 6534 ft 287 kts 191°
2026-05-07 14:44 39.61659 27.11191 5798 ft 250 kts 209°
2026-05-07 14:44 39.60432 27.09923 5061 ft 207 kts 229°
2026-05-07 14:44 39.59553 27.08529 4220 ft 198 kts 231°
2026-05-07 14:44 39.58679 27.07118 3281 ft 196 kts 233°
2026-05-07 14:45 39.57815 27.05865 2648 ft 177 kts 228°
2026-05-07 14:45 39.57150 27.04546 1771 ft 163 kts 238°
2026-05-07 14:45 39.56595 27.03510 843 ft 133 kts 236°
2026-05-07 14:45 39.56108 27.02585 198 ft 114 kts 238°
2026-05-07 14:46 39.55744 27.01907 44 ft 45 kts 234°
2026-05-07 14:46 39.55707 27.01843 43 ft 9 kts 232°
2026-05-07 14:46 39.55648 27.01742 42 ft 18 kts 234°
2026-05-07 14:46 39.55565 27.01588 42 ft 24 kts 234°
2026-05-07 14:47 39.55459 27.01399 43 ft 28 kts 234°
2026-05-07 14:47 39.55344 27.01196 42 ft 28 kts 234°
2026-05-07 14:47 39.55235 27.01007 40 ft 23 kts 231°
2026-05-07 14:47 39.55138 27.00978 39 ft 15 kts 156°
2026-05-07 14:48 39.55048 27.01054 40 ft 15 kts 144°
2026-05-07 14:48 39.54967 27.01129 40 ft 14 kts 144°
2026-05-07 14:48 39.54952 27.01143 40 ft 0 kts 144°